{"data":{"norad_id":46805,"epoch":"2026-05-23T01:46:08.184576Z","epoch_age_seconds":238507,"freshness":"STALE","line1":"1 46805U 20075A   26143.07370584  .00000026  00000+0  00000+0 0  9993","line2":"2 46805  64.5977 193.3141 0008999 239.0049 120.9752  2.13100163 43377","mean_motion":2.13100163,"eccentricity":0.0008999,"inclination_deg":64.5977,"raan_deg":193.3141,"arg_perigee_deg":239.0049,"mean_anomaly_deg":120.9752,"bstar":0,"rev_number":4337,"period_min":675.73857275745,"perigee_km":19107.079216446,"apogee_km":19152.988822647,"semimajor_km":25508.171019547,"source":"CELESTRAK","updated_at":"2026-05-25T13:38:23.896300Z"}}